Regional Weather Roundup
Issued by NWS

Home | Current Version | Previous Version | Text Only | Print | Product List | Glossary Off
Versions: 1 2 3 4 5 6 7 8 9 10 11 12 13 14 15 16 17 18 19 20 21 22 23 24 25 26 27 28 29 30 31 32 33 34 35 36 37 38 39 40 41 42 43 44 45 46 47 48 49 50

000
ASUS43 KFSD 300110
RWRSD

WEATHER ROUNDUP FOR SOUTH DAKOTA
NATIONAL WEATHER SERVICE SIOUX FALLS SD
800 PM CDT FRI MAY 29 2015

NOTE: "FAIR" INDICATES FEW OR NO CLOUDS BELOW 12,000 FEET WITH NO
SIGNIFICANT WEATHER AND/OR OBSTRUCTIONS TO VISIBILITY.


SDZ001>005-009-010-012>017-300200-
NORTHWEST AND NORTH CENTRAL SOUTH DAKOTA

CITY           SKY/WX    TMP DP  RH WIND       PRES   REMARKS
BUFFALO          N/A     55  38  52 E8        30.21R
FAITH            N/A     52  35  52 N12       30.27R
MOBRIDGE       PTSUNNY   56  38  50 N9        30.22S
$$

SDZ012>016-024>037-041>051-057-063-072>074-300200-
SOUTHWEST AND SOUTH CENTRAL SOUTH DAKOTA

CITY           SKY/WX    TMP DP  RH WIND       PRES   REMARKS
RAPID CTY ARPT CLOUDY    55  40  56 N9        30.27R
PIERRE         MOSUNNY   52  39  61 N10       30.23R
CUSTER         CLOUDY    45  42  89 S3        30.29S
ELLSWORTH AFB  MOSUNNY   56  38  51 N10       30.27R
PHILIP         PTSUNNY   53  39  59 N15       30.26R
PINE RIDGE     PTSUNNY   51  40  65 N8        30.27F
SPEARFISH      FAIR      52  39  62 NE6       30.29S
WINNER         CLOUDY    53  42  66 NW15      30.22S
$$

SDZ004>011-016>023-039-040-300200-
NORTHEAST SOUTH DAKOTA

CITY           SKY/WX    TMP DP  RH WIND       PRES   REMARKS
ABERDEEN       CLOUDY    55  42  61 N15       30.18R
WATERTOWN      CLOUDY    49  41  74 N18       30.13R
BROOKINGS      CLOUDY    48  43  81 N18G25    30.13R
SISSETON         N/A     51  43  74 N23G33    30.14R
$$

SDZ017-020-022-023-036>040-048>070-300200-
SOUTHEAST SOUTH DAKOTA

CITY           SKY/WX    TMP DP  RH WIND       PRES   REMARKS
SIOUX FALLS    CLOUDY    51  46  83 N13G26    30.09R
HURON          CLOUDY    53  42  66 N20       30.17R
CHAMBERLAIN    CLOUDY    51  42  70 N12       30.21R
MITCHELL       CLOUDY    52  45  77 N17       30.17R
YANKTON        CLOUDY    52  46  82 NW21G30   30.10R
$$

ABBREVIATIONS USED IN REMARKS
   TC - TEMPERATURE IN CELSIUS
  WCI - WIND CHILL INDEX
   HX - HEAT INDEX
  VSB - VISIBILITY




USA.gov is the U.S. government's official web portal to all federal, state and local government web resources and services.